Temp
2 2 3 3 3 3 3 4 4 4 4 4 4 4 4 4 4 4 4 4 4 4 4 5 5 5 5 5 5 5 5 5 4 4 3 3 3 3 3 4 4 4
2 2 3 3 3 3 3 3 4 4 4 4 4 4 4 4 4 4 4 4 4 4 4 4 5 5 5 5 5 5 5 5 5 4 3 3 3 3 3 3 3 3
2 2 3 3 3 3 3 3 3 4 4 4 4 4 4 4 5 5 4 4 4 4 4 4 4 4 5 5 5 5 5 5 4 4 4 3 3 3 3 3 3 3
1 2 2 2 3 3 3 3 3 4 4 4 4 4 4 5 5 5 5 5 5 4 4 4 4 4 4 5 5 4 5 5 4 4 4 3 3 2 3 3 3 3
1 2 2 2 3 3 3 3 3 4 4 4 4 4 4 5 5 4 4 4 4 4 4 4 4 4 4 4 4 4 4 4 4 4 3 3 3 2 2 3 3 3
1 2 2 2 2 2 3 3 3 3 3 3 4 4 4 4 4 4 4 4 4 4 4 4 4 4 4 4 4 4 4 4 4 4 3 3 3 2 2 3 3 3
1 2 2 2 2 2 3 3 3 3 3 3 3 3 4 4 4 4 4 4 4 4 4 4 4 4 4 4 4 4 4 4 4 3 3 2 2 2 2 3 3 3
1 2 2 2 2 2 3 3 3 3 3 3 3 3 3 4 4 4 4 4 4 3 3 3 4 4 4 4 4 4 4 4 4 3 3 2 2 2 2 2 3 3
1 2 2 2 2 2 3 3 3 3 3 3 3 3 3 4 4 4 3 3 3 3 3 3 3 3 3 3 3 4 4 3 3 3 3 2 2 2 2 2 2 2
1 2 2 2 2 2 2 3 3 3 3 3 3 3 3 3 3 3 3 3 3 3 2 3 3 3 3 3 3 3 3 3 3 3 2 1 1 1 2 2 2 2
2 2 2 2 2 2 2 2 2 2 2 2 3 3 3 3 2 2 2 2 2 2 2 2 2 2 2 2 3 2 2 3 2 2 2 1 0 1 2 2 2 2
2 2 2 2 2 2 2 2 2 2 2 2 2 2 2 2 2 1 1 1 1 1 1 1 1 2 2 2 2 2 2 2 2 2 1 0 -0 1 1 1 1 2
2 2 2 3 3 2 2 2 2 2 2 2 2 2 1 1 1 1 1 0 0 0 0 0 1 1 1 1 1 2 2 2 2 1 1 -0 -0 1 1 1 2 1
1 2 2 3 3 2 2 2 2 2 2 2 1 1 1 1 1 0 0 0 0 0 0 0 0 0 1 1 1 1 1 2 1 1 0 0 0 0 1 1 2 1
1 1 2 2 2 2 2 2 1 1 1 1 1 1 1 1 0 0 0 0 -0 -0 -0 -0 -0 0 0 1 1 1 1 1 1 0 0 0 0 0 1 1 1 1
1 1 1 2 2 2 2 2 2 1 1 1 1 1 1 1 0 -0 -0 0 -0 -0 -0 -0 -0 -0 0 0 0 1 1 1 1 0 0 0 0 0 0 1 1 1
1 1 1 2 2 2 3 2 2 1 1 1 1 1 1 0 0 -0 -0 -0 -0 -0 -0 -0 -0 -0 -0 0 0 0 1 1 1 1 0 0 0 0 0 0 1 1
1 1 1 2 2 2 2 2 2 1 1 1 1 1 1 0 0 0 -0 -0 -0 -0 -0 -0 -0 -0 -0 -0 0 0 0 0 1 1 1 1 0 0 0 0 0 1
1 1 1 2 2 2 2 2 2 2 1 1 1 1 1 0 0 -0 -0 -0 -0 -0 -0 -0 -0 -0 -0 -0 -0 0 0 0 0 0 0 1 1 0 0 0 0 1
1 1 1 2 2 2 2 2 2 2 2 1 1 1 1 0 0 -0 -0 -0 -0 -0 -0 -0 -0 -0 -0 -0 -0 -0 -0 -0 -0 0 0 0 0 0 0 0 1 1
1 1 2 2 2 2 2 2 2 2 2 1 1 1 1 0 0 -0 -0 -0 -0 -0 -0 -0 -0 -0 -0 -0 -0 -0 -0 -0 -0 -0 -0 0 0 0 -0 0 1 1
1 1 2 2 2 2 2 2 2 2 2 2 2 1 1 0 0 0 -0 -0 -0 -0 -0 -0 -0 -0 -0 -0 -0 -0 -1 -1 -0 -0 -0 -0 -0 -1 -1 -0 1 1
1 1 1 1 2 2 2 2 2 2 2 2 2 1 1 1 0 0 -0 -0 -0 0 -0 0 0 -0 -0 -0 -0 -0 -1 -1 -1 -0 -0 -1 -1 -1 -1 -0 0 1
1 1 1 1 1 1 1 1 1 2 2 2 2 1 1 1 0 0 0 -0 0 0 0 0 0 0 -0 -0 -0 -0 -1 -1 -1 -0 -1 -1 -1 -1 -1 -0 0 0
1 1 1 1 1 1 1 1 1 1 2 2 1 1 1 1 0 0 0 0 0 0 0 0 0 0 -0 -0 -0 -0 -0 -1 -1 -1 -1 -1 -1 -1 -1 -0 0 0
0 1 1 1 1 1 1 1 1 1 1 1 1 1 1 1 0 0 0 0 0 0 0 0 0 0 0 0 0 -0 -0 -0 -1 -1 -1 -1 -1 -1 -0 -0 0 0
Height
3122 3120 3119 3118 3117 3116 3116 3115 3115 3114 3114 3113 3113 3112 3112 3112 3112 3111 3111 3111 3111 3111 3111 3111 3111 3112 3112 3113 3113 3113 3114 3114 3114 3115 3116 3117 3118 3118 3120 3121 3121 3122
3121 3120 3118 3117 3116 3115 3115 3114 3113 3113 3112 3112 3111 3111 3110 3110 3110 3109 3109 3109 3109 3109 3109 3109 3109 3109 3110 3110 3111 3111 3111 3111 3112 3112 3113 3114 3115 3116 3117 3118 3119 3120
3120 3119 3118 3117 3115 3114 3114 3113 3112 3111 3111 3110 3110 3109 3109 3108 3108 3107 3107 3107 3107 3107 3107 3107 3107 3107 3107 3107 3108 3108 3108 3109 3109 3109 3110 3111 3112 3113 3114 3115 3116 3117
3120 3118 3116 3116 3114 3113 3113 3112 3111 3110 3109 3109 3108 3108 3107 3107 3107 3106 3105 3105 3105 3105 3104 3104 3104 3104 3104 3105 3105 3105 3105 3106 3106 3106 3107 3108 3110 3110 3111 3112 3114 3115
3119 3117 3115 3114 3113 3112 3111 3110 3109 3108 3108 3107 3107 3106 3106 3105 3105 3104 3104 3103 3102 3102 3102 3102 3102 3102 3102 3102 3103 3103 3103 3103 3103 3104 3105 3106 3107 3108 3109 3110 3111 3112
3117 3116 3114 3113 3112 3111 3110 3108 3108 3107 3106 3106 3105 3104 3104 3103 3103 3102 3101 3101 3100 3100 3100 3100 3099 3099 3099 3099 3100 3100 3100 3100 3101 3101 3102 3103 3105 3106 3106 3107 3108 3109
3116 3114 3113 3112 3111 3109 3108 3106 3106 3105 3105 3104 3103 3102 3102 3101 3101 3100 3099 3099 3098 3098 3097 3097 3097 3097 3096 3096 3097 3097 3097 3098 3098 3099 3100 3101 3102 3104 3104 3105 3106 3107
3115 3113 3112 3110 3109 3108 3106 3105 3104 3104 3103 3102 3102 3101 3100 3099 3098 3098 3097 3096 3096 3095 3095 3095 3094 3094 3094 3094 3094 3094 3094 3095 3095 3096 3097 3098 3100 3101 3102 3102 3103 3104
3113 3112 3110 3109 3108 3106 3105 3104 3103 3102 3101 3101 3100 3099 3098 3097 3097 3096 3095 3094 3093 3093 3092 3092 3092 3092 3091 3091 3091 3091 3091 3092 3092 3093 3094 3095 3097 3099 3100 3100 3101 3101
3111 3110 3109 3107 3106 3105 3103 3102 3101 3100 3099 3098 3098 3097 3096 3096 3095 3094 3093 3092 3092 3091 3090 3090 3090 3089 3089 3088 3088 3088 3089 3089 3090 3090 3091 3093 3094 3096 3097 3098 3098 3099
3110 3108 3107 3106 3105 3103 3102 3101 3100 3098 3097 3097 3096 3095 3094 3094 3093 3092 3092 3091 3090 3089 3088 3088 3087 3087 3086 3086 3086 3086 3086 3087 3087 3088 3089 3090 3092 3094 3095 3095 3096 3097
3109 3107 3106 3104 3103 3102 3100 3099 3098 3097 3096 3095 3094 3094 3093 3092 3092 3091 3090 3089 3088 3087 3087 3086 3086 3085 3084 3084 3084 3084 3084 3084 3085 3086 3086 3088 3089 3091 3092 3093 3094 3095
3108 3106 3104 3103 3102 3101 3099 3098 3097 3095 3094 3094 3093 3092 3092 3091 3090 3089 3088 3088 3087 3086 3085 3085 3084 3083 3083 3082 3082 3082 3082 3082 3083 3084 3085 3086 3087 3089 3090 3091 3092 3093
3106 3104 3102 3101 3100 3099 3098 3096 3095 3094 3093 3092 3092 3091 3090 3090 3089 3088 3087 3086 3086 3085 3084 3083 3083 3082 3081 3081 3080 3080 3080 3080 3081 3082 3083 3084 3086 3087 3088 3089 3090 3090
3104 3103 3101 3099 3098 3097 3096 3095 3094 3093 3092 3091 3090 3089 3089 3088 3088 3087 3086 3085 3085 3084 3083 3082 3082 3081 3080 3079 3079 3078 3078 3079 3079 3080 3081 3082 3084 3085 3086 3087 3087 3088
3103 3101 3100 3098 3097 3095 3094 3094 3093 3092 3091 3090 3089 3088 3088 3087 3086 3086 3085 3084 3083 3083 3082 3081 3081 3080 3079 3078 3077 3077 3077 3077 3077 3078 3079 3081 3082 3083 3084 3085 3085 3085
3102 3100 3099 3097 3095 3094 3093 3092 3091 3090 3089 3088 3088 3087 3086 3086 3085 3084 3084 3083 3082 3082 3081 3080 3080 3079 3078 3077 3076 3076 3076 3076 3076 3076 3077 3079 3080 3081 3082 3083 3083 3084
3101 3099 3097 3096 3094 3093 3091 3090 3089 3089 3088 3087 3086 3086 3085 3084 3084 3083 3082 3082 3081 3080 3080 3079 3079 3078 3077 3076 3075 3075 3075 3075 3074 3075 3075 3077 3078 3079 3079 3080 3081 3082
3099 3097 3096 3094 3093 3091 3090 3089 3088 3087 3086 3086 3085 3084 3083 3083 3082 3082 3081 3080 3080 3079 3079 3078 3078 3077 3076 3075 3074 3074 3073 3073 3073 3073 3073 3074 3076 3077 3077 3078 3079 3080
3097 3096 3094 3093 3091 3090 3089 3088 3087 3086 3085 3084 3083 3082 3081 3081 3080 3080 3080 3079 3078 3078 3077 3077 3077 3076 3076 3075 3074 3073 3072 3072 3072 3072 3072 3073 3073 3074 3074 3075 3077 3078
3096 3094 3093 3091 3090 3089 3088 3087 3085 3084 3083 3082 3081 3080 3079 3079 3079 3078 3078 3078 3077 3077 3076 3076 3076 3075 3075 3074 3073 3072 3072 3071 3071 3071 3071 3071 3071 3071 3072 3073 3075 3076
3094 3093 3091 3090 3089 3087 3086 3085 3084 3083 3082 3081 3080 3078 3077 3077 3077 3076 3076 3076 3075 3075 3074 3074 3074 3074 3074 3073 3073 3072 3071 3070 3070 3070 3069 3069 3069 3069 3070 3071 3072 3073
3093 3091 3090 3089 3087 3086 3084 3083 3082 3081 3081 3079 3078 3077 3076 3075 3075 3074 3074 3074 3073 3073 3073 3073 3073 3073 3073 3072 3072 3071 3070 3070 3069 3069 3068 3068 3068 3068 3068 3068 3069 3070
3091 3090 3089 3087 3086 3084 3083 3082 3081 3080 3079 3078 3076 3075 3074 3073 3073 3072 3072 3072 3071 3071 3071 3071 3071 3072 3072 3071 3071 3070 3069 3069 3068 3067 3067 3067 3066 3066 3066 3066 3067 3068
3090 3089 3087 3086 3085 3083 3082 3081 3080 3079 3078 3077 3075 3074 3073 3072 3071 3070 3070 3070 3070 3069 3069 3069 3069 3070 3070 3070 3069 3069 3069 3068 3067 3067 3066 3065 3065 3065 3065 3065 3065 3066
3090 3088 3087 3085 3084 3083 3081 3080 3079 3077 3076 3075 3074 3073 3072 3070 3069 3068 3068 3068 3068 3067 3067 3067 3067 3068 3068 3068 3068 3068 3067 3067 3066 3066 3065 3064 3064 3063 3063 3064 3064 3065
Wind_Speed
20 19 17 15 13 12 12 12 12 13 14 15 15 16 16 17 17 17 18 18 18 18 18 19 19 18 19 20 21 22 23 25 26 25 22 21 22 23 23 24 25 25
20 18 17 15 13 12 13 13 13 13 13 14 15 15 16 17 18 18 18 19 19 18 18 18 19 20 19 19 20 21 23 25 26 26 25 23 22 22 23 24 24 24
21 19 17 15 14 13 12 13 13 13 13 14 15 15 16 18 18 19 19 19 19 18 18 18 19 20 20 20 20 21 22 24 24 25 25 23 21 20 21 22 23 24
22 20 18 16 15 14 13 13 13 13 14 14 16 17 17 18 18 18 19 19 19 18 18 18 19 20 20 20 20 21 22 22 23 23 24 22 19 17 17 19 21 23
23 21 19 17 15 15 14 13 13 13 14 15 16 17 18 18 18 18 18 19 19 18 18 18 19 20 20 20 20 21 22 22 22 22 22 19 16 14 15 17 19 21
24 22 20 17 16 14 13 13 13 13 14 15 16 18 18 18 18 19 19 19 19 19 19 19 19 20 21 20 20 21 21 22 22 21 20 18 16 14 15 17 19 20
24 22 21 19 17 14 13 14 14 13 14 15 17 18 19 19 20 20 20 20 20 20 20 20 20 21 21 21 21 21 21 21 22 21 20 19 17 16 16 18 20 21
24 23 22 21 18 15 14 14 15 14 14 15 16 18 19 20 21 21 21 21 21 21 20 21 21 21 22 22 22 22 21 21 22 22 20 19 17 16 15 16 18 20
25 24 22 21 19 16 14 14 14 14 14 15 16 17 19 20 21 21 21 21 21 21 21 21 21 21 22 23 23 22 21 21 22 22 19 18 17 16 14 15 16 17
27 25 23 21 20 17 15 14 14 14 15 16 17 18 18 19 19 20 20 20 20 21 21 21 21 21 22 23 23 22 20 20 20 20 18 17 17 16 16 16 16 17
28 27 24 22 21 18 16 14 13 14 15 16 17 17 18 18 18 18 18 18 19 19 20 20 20 20 21 21 21 20 19 19 19 19 18 16 16 17 17 16 15 16
28 27 25 22 20 19 17 14 13 13 14 15 16 16 17 17 17 16 16 17 17 17 18 18 18 19 20 20 20 19 19 18 18 18 17 16 16 16 18 17 16 14
27 26 24 21 19 19 18 14 13 13 13 14 15 15 16 16 15 15 15 15 16 16 16 16 17 17 18 18 18 19 18 17 18 17 15 16 17 17 18 19 16 14
27 26 25 22 20 20 19 15 13 13 13 13 14 15 15 15 14 14 14 15 15 15 14 15 15 16 17 17 17 17 17 17 17 16 15 16 17 17 17 17 15 15
27 26 26 26 24 22 19 16 14 13 13 13 14 14 14 14 13 14 14 14 14 14 14 14 14 15 16 16 16 16 16 16 17 16 16 17 17 16 16 15 14 15
26 26 26 26 25 23 20 16 14 13 13 13 13 14 14 13 13 13 14 14 13 13 14 13 14 15 15 15 15 15 15 15 16 18 18 18 17 16 15 15 14 14
24 25 25 25 25 24 21 17 15 13 13 14 13 14 14 13 13 13 13 14 13 13 13 13 14 14 15 15 15 14 14 14 14 16 18 19 18 17 16 16 15 13
23 23 23 24 24 23 21 18 15 14 14 15 14 14 14 13 13 13 13 14 14 13 13 13 13 14 14 14 14 13 13 13 12 13 16 18 19 18 18 18 17 15
23 22 22 23 23 22 20 18 16 15 15 16 15 15 15 14 14 14 14 14 14 13 13 13 13 13 13 14 13 12 12 12 11 11 12 15 17 19 19 20 19 18
22 21 21 21 21 21 20 18 17 16 16 16 16 16 15 15 15 15 15 15 14 14 13 12 12 12 13 13 13 12 11 11 11 10 10 11 14 16 19 20 19 19
21 20 19 20 20 20 19 18 18 17 17 16 17 16 16 16 16 16 16 16 16 15 14 13 12 12 12 12 12 12 11 11 11 10 9 10 11 14 17 19 19 18
20 20 19 19 19 20 19 19 18 18 17 17 17 16 16 16 17 17 17 17 17 16 15 14 12 12 12 12 11 11 11 11 11 10 9 9 10 11 13 15 17 18
20 20 19 19 19 19 20 20 19 19 18 18 17 16 16 16 17 18 18 18 18 17 16 15 13 11 12 12 12 11 11 12 11 11 10 8 8 9 10 12 15 16
20 20 19 19 18 19 19 20 20 19 19 19 18 17 17 16 17 18 18 18 18 17 17 16 14 12 11 12 12 12 12 12 12 11 10 9 8 8 9 10 12 14
20 20 20 19 19 19 19 19 19 19 18 18 18 18 17 16 16 18 18 18 18 17 16 16 15 13 12 12 12 12 12 12 13 12 12 11 10 9 9 9 10 11
20 20 19 19 18 18 18 18 18 18 18 18 17 18 17 16 16 17 18 18 18 17 16 15 14 13 13 13 13 12 12 12 13 13 12 11 10 10 10 9 7 9
Wind_Direction
329 324 323 322 321 320 316 311 304 300 300 299 299 299 298 297 295 293 291 290 288 287 286 283 280 276 273 271 270 267 265 263 259 255 250 248 249 249 248 250 253 256
327 323 324 325 326 326 322 316 309 303 300 298 298 298 297 296 295 293 293 292 291 290 288 286 285 282 277 274 271 268 266 265 262 258 255 254 251 247 246 248 251 255
327 324 327 328 327 327 322 315 310 306 303 300 298 297 296 295 295 296 295 293 292 290 287 285 283 282 281 278 274 270 267 267 265 261 259 260 258 254 250 248 250 254
328 324 327 328 326 324 319 312 308 305 302 299 299 298 297 298 298 298 297 295 294 291 288 285 282 281 281 279 276 273 270 267 265 263 262 263 263 262 255 248 250 254
327 323 324 326 326 323 319 313 308 305 303 301 301 301 302 303 302 299 296 294 293 291 288 285 283 281 280 279 277 275 272 269 266 263 261 260 261 264 260 251 249 252
324 322 322 324 325 322 319 316 312 310 309 308 308 308 308 307 302 297 292 289 289 288 287 285 284 282 280 279 277 275 273 270 267 262 256 253 253 256 259 256 252 252
323 322 322 323 324 322 319 317 315 315 315 315 315 314 313 310 305 301 296 291 288 287 286 285 283 282 281 280 277 274 271 269 266 260 251 247 247 246 253 258 254 254
324 323 322 322 324 323 320 317 316 318 319 319 318 315 313 309 306 304 300 296 290 285 283 284 283 283 282 280 277 274 271 267 265 261 250 241 240 241 251 260 258 257
324 322 321 322 324 322 318 315 315 319 322 320 318 314 310 308 307 304 300 296 291 287 284 284 284 283 282 280 277 275 272 267 263 263 256 242 235 237 250 262 262 261
322 322 322 323 325 321 315 314 316 322 325 322 319 315 312 311 308 304 300 296 292 288 286 284 282 281 280 279 278 276 274 268 262 262 258 243 233 236 249 261 263 264
322 323 323 324 324 318 313 314 317 322 325 322 321 318 315 313 309 306 302 297 292 289 286 284 282 282 280 278 279 277 274 268 260 257 254 240 230 238 248 257 264 265
322 322 320 321 323 317 312 313 316 320 322 321 321 318 315 313 311 307 301 296 293 290 288 288 287 285 283 280 279 276 272 266 259 255 250 237 231 238 246 254 264 269
323 322 320 322 325 319 312 311 313 318 320 319 319 316 314 314 312 307 302 298 296 293 292 293 292 289 286 283 279 275 272 268 259 250 241 234 234 240 247 252 262 270
323 323 323 326 328 322 314 310 310 314 317 317 315 314 314 314 310 308 306 303 301 298 299 300 298 295 291 287 283 277 272 266 258 245 233 232 236 241 247 252 258 263
322 324 325 325 324 321 316 309 305 308 313 313 312 312 313 312 309 309 309 308 306 305 308 308 305 300 296 292 288 283 275 266 255 241 230 231 237 241 246 251 255 258
320 321 322 321 320 319 317 309 302 304 309 308 308 307 307 308 309 309 310 310 310 311 314 315 312 306 302 297 293 287 282 272 258 243 232 230 235 240 242 246 251 257
318 318 319 319 318 319 317 310 304 304 305 304 304 302 301 302 304 305 306 308 310 313 315 317 317 314 310 304 299 293 287 280 267 251 238 231 233 237 238 242 248 254
318 318 318 317 318 318 317 312 307 304 303 301 301 300 297 296 297 299 302 305 308 311 314 317 320 320 316 311 306 301 294 287 278 262 246 235 232 235 238 239 244 249
318 319 319 318 319 319 318 315 311 306 303 299 297 297 297 295 294 295 298 301 304 307 309 313 317 319 319 317 314 309 302 295 286 272 255 241 233 234 238 239 240 244
318 320 319 319 320 319 319 318 314 311 307 300 295 294 295 295 292 290 292 296 299 302 301 305 311 315 316 319 319 316 310 301 292 281 267 251 237 234 237 239 239 240
319 318 319 320 320 320 320 319 316 315 312 305 300 297 293 291 288 285 285 288 292 295 295 298 304 308 309 313 317 319 315 305 294 286 275 260 245 237 237 239 238 237
321 320 321 322 322 321 321 320 318 316 313 309 307 303 295 288 284 281 279 281 285 289 290 292 297 301 302 304 309 314 315 309 299 292 284 268 254 248 244 242 241 238
323 323 322 322 323 323 323 322 319 316 314 311 310 308 301 291 284 279 277 277 280 283 285 288 293 296 296 296 300 305 308 307 303 298 292 280 266 261 257 249 244 240
325 324 324 324 324 324 324 322 319 316 315 314 312 309 305 295 285 279 275 275 277 279 281 283 287 291 291 290 293 297 300 302 302 300 297 287 275 269 264 254 245 241
327 326 326 326 325 324 322 320 318 317 316 315 313 310 307 301 291 281 275 273 275 277 278 279 281 284 283 284 287 291 295 297 297 298 299 295 289 280 274 269 257 245
327 327 326 325 323 323 321 319 318 317 317 316 313 310 309 306 299 289 280 275 274 276 276 277 279 279 279 280 284 288 291 291 291 294 296 298 296 288 284 287 274 247